Location: Bletchingley
(51.2333°N, 0.1000°W)
Time: 15:24:53
(UTC+00:00)

Cosmos 1975 Rocket - Pass Details

Date: 18 September 2020
Orbit: 603 x 634 km, 82.5° (Epoch: 27 October)

Event Time Altitude Azimuth Distance (km) Brightness Sun altitude
Rises 19:04:19 0° 348° (NNW) 2,886 6.9 -9.7°
Reaches altitude 10° 19:06:33 10° 346° (NNW) 1,973 6.0 -10.0°
Maximum altitude 19:10:54 74° 262° (W) 637 3.3 -10.7°
Drops below altitude 10° 19:15:12 10° 178° (S) 1,947 5.4 -11.3°
Sets 19:17:23 0° 177° (S) 2,845 6.3 -11.7°
